Flag for Germany Weather past 2 weeks in Freising, Bavaria, Germany

Now
72 °F

Passing clouds.


Feels Like: 77 °F
Forecast: 50 / 70 °F
Wind: 3 mph from East

Location: Muenchen Flughafen

Current Time: Sep 17, 2014 at 5:47:44 PM

Latest Report: Sep 17, 2014 at 5:00 PM


Visibility: 25 mi

Pressure: 29.86 "Hg

Humidity: 55%

Dew point: 55 °F

Location of FreisingLocation

Historic Weather in Freising — Graph

°F

Freising temperature yesterday

Maximum temperature yesterday: 65 °F (at 6:00 PM)
Minimum temperature yesterday: 49 °F (at 12:00 AM)
Average temperature yesterday: 58 °F

Past Weeks' High & Low Weather Summary

 TemperatureHumidityPressure
High78 °F (Sep 8, 4:00 PM)100% (Sep 5, 5:00 AM)30.16 "Hg (Sep 5, 5:00 AM)
Low49 °F (Sep 10, 7:00 AM)47% (Sep 7, 4:00 PM)29.84 "Hg (Sep 6, 5:00 PM)
Average60 °F87%30.00 "Hg
* Reported Sep 2 5:00 PM — Sep 17 5:00 PM, Freising, Weather by CustomWeather, © 2014

Note: Actual official high and low records may vary slightly from our data, if they occured in-between our weather recording intervals... More about our weather records

Advertising

Freising weather history for previous 24 hours

 ConditionsComfort  
Time TempWeatherWind HumidityBarometerVisibility
5:00 PM
Sep 17
72 °FPassing clouds.3 mph55%29.86 "Hg25 mi
4:00 PM72 °FPassing clouds.3 mph59%29.87 "Hg12 mi
3:00 PM70 °FPassing clouds.2 mph67%29.89 "Hg11 mi
2:00 PM66 °FPassing clouds.3 mph73%29.92 "Hg11 mi
1:00 PM60 °FFog.2 mph86%29.95 "Hg4 mi
12:00 PM58 °FFog.2 mph94%29.96 "Hg2 mi
11:00 AM56 °FFog.2 mph98%29.97 "Hg1 mi
10:00 AM54 °FFog.3 mph100%29.97 "Hg1 mi
9:00 AM54 °FFog.2 mph100%29.97 "Hg1 mi
8:00 AM54 °FFog.3 mph100%29.97 "Hg0 mi
7:00 AM54 °FFog.2 mph100%29.97 "Hg0 mi
6:00 AM54 °FFog.2 mph100%29.96 "Hg0 mi
5:00 AM53 °FFog.2 mph100%29.97 "Hg1 mi
4:00 AM51 °FFog.2 mph100%29.98 "Hg0 mi
3:00 AM51 °FFog.1 mph100%29.99 "Hg0 mi
2:00 AM49 °FFog.1 mph100%30.01 "Hg0 mi
1:00 AM51 °FFog.No wind100%30.00 "Hg0 mi
12:00 AM51 °FFog.1 mph100%30.00 "Hg0 mi
11:00 PM
Sep 16
52 °FFog.No wind100%30.00 "Hg1 mi
10:00 PM54 °FFog.1 mphN/A30.00 "Hg2 mi
9:00 PM54 °FFog.No wind100%30.01 "Hg6 mi
8:00 PM58 °FPassing clouds.1 mph96%29.98 "Hg9 mi
7:00 PM64 °FPassing clouds.1 mph80%29.97 "Hg12 mi
6:00 PM65 °FPassing clouds.1 mph75%29.97 "Hg12 mi
5:00 PM65 °FScattered clouds.2 mph80%29.97 "Hg14 mi
Weather by CustomWeather, © 2014

See weather overviewHow to use our weather pages